SCOUT X-4 DEB, 2088

Orbit data source: Space-Track

SCOUT X-4 DEB, 2088 is space debris in LEO originally from a launch on Fri, 19 Nov 1965 UTC launched from the Wallops Island (WLPIS). Debris objects in space refer to the collection of defunct objects orbiting the Earth. Examples of debris include non-operational satellites, rocket bodies, and fragments generated from explosions, collisions, or faulty payload assembly.

Loading next visibility...
Identifier
2088, 1965-093D
Orbit
LEO
Country
Flag of USUS
Related business
Manufacturer
Unknown
Mission
Spacecraft
Bus & Motor
Unknown
Mass
Unknown
Launch date (UTC)
1965-11-19 (60 years ago)
Launch vehicle
Unknown
Launch site
Wallops Island (WLPIS)
Object type
Payload
Rocket body
Debris
Shape & HBR
Unknown
Radar Cross Section
Small (<0.1 m²)

Expand to show TLE details & history
Last TLE update: 1 day ago

TLE from 1 day ago
0 SCOUT X-4 DEB
1 02088U 65093D   25259.84291291  .00001464  00000-0  31572-3 0  9996
2 02088  59.7146  70.3659 0082009 158.1665 202.2910 14.61212843113938
Epoch: 2025-09-16T20:13Z
TLE epoch observation values (Epoch: 2025-09-16T20:13:47.675Z)
Latitude
-0.00008°
Longitude
130.8898°
Altitude
744.487 km
Speed
7.455 km/s
True Right ascension
04h 41m 27s
True Declination
0° 00' 00"
Sunlit
Object was in daylight at epoch
Visualization orbit readout
Latitude
Unknown
Longitude
Unknown
Altitude
Unknown
Speed
Unknown
Apparent Right ascension
Unknown
Apparent Declination
Unknown
Sunlit
N/A
Visualization observer readout
Local Sidereal Time
19:53:40
Azimuth
Unknown
Elevation
Unknown
Doppler factor
Unknown
Orbital elements
Apogee altitude
746.479 km
Perigee altitude
630.573 km
Semi-major axis
7,066.663 km
Eccentricity
0.0082
Inclination
59.7146°
RAAN
70.3659°
Arg. of periapsis
158.1665°
True anomaly
201.93789°
Mean anomaly
202.291°
Eccentric anomaly
202.11411°
Mean motion
3.6536 °/min
Orbital period
98.53 mins
BSTAR
0.00031572
Loading maneuver chart data...
Computing Atmospheric mass density...
Loading historical data...
Loading historical data...
Loading historical data...
Loading historical data...
Loading historical data...
Loading historical data...
Loading historical data...
Other satellites on launch #93 in the year 1965 (1965-11-19 UTC)

Documentation

Showing up to 5 results
|